Time,TemperatureF,DewpointF,PressureIn,WindDirection,WindDirectionDegrees,WindSpeedMPH,WindSpeedGustMPH,Humidity,HourlyPrecipIn,Conditions,Clouds,dailyrainin,SoftwareType,DateUTC
2013-08-06 00:33:00,58.0,-99.9,-100.00,East,86,-999.0,-999.0,-999,0.00,,,-99.99,,2013-08-06 04:33:00,
2013-08-06 00:44:00,58.0,-99.9,-100.00,East,86,-999.0,-999.0,-999,0.00,,,-99.99,,2013-08-06 04:44:00,
2013-08-06 00:52:00,56.0,-99.9,-100.00,East,86,-999.0,-999.0,-999,0.00,,,-99.99,,2013-08-06 04:52:00,
2013-08-06 01:32:00,56.0,-99.9,-100.00,East,86,-999.0,-999.0,-999,0.00,,,-99.99,,2013-08-06 05:32:00,
2013-08-06 01:43:00,56.0,-99.9,-100.00,East,86,-999.0,-999.0,-999,0.00,,,-99.99,,2013-08-06 05:43:00,
2013-08-06 01:52:00,55.0,-99.9,-100.00,East,86,-999.0,-999.0,-999,0.00,,,-99.99,,2013-08-06 05:52:00,
2013-08-06 02:32:00,55.0,-99.9,-100.00,East,86,-999.0,-999.0,-999,0.00,,,-99.99,,2013-08-06 06:32:00,
2013-08-06 02:43:00,55.0,-99.9,-100.00,East,86,-999.0,-999.0,-999,0.00,,,-99.99,,2013-08-06 06:43:00,
2013-08-06 02:52:00,54.0,-99.9,-100.00,East,86,-999.0,-999.0,-999,0.00,,,-99.99,,2013-08-06 06:52:00,
2013-08-06 03:32:00,54.0,-99.9,-100.00,East,86,-999.0,-999.0,-999,0.00,,,-99.99,,2013-08-06 07:32:00,
2013-08-06 03:44:00,54.0,-99.9,-100.00,East,86,-999.0,-999.0,-999,0.00,,,-99.99,,2013-08-06 07:44:00,
2013-08-06 03:52:00,53.0,-99.9,-100.00,East,86,-999.0,-999.0,-999,0.00,,,-99.99,,2013-08-06 07:52:00,
2013-08-06 04:33:00,53.0,-99.9,-100.00,East,86,-999.0,-999.0,-999,0.00,,,-99.99,,2013-08-06 08:33:00,
2013-08-06 04:43:00,53.0,-99.9,-100.00,East,86,-999.0,-999.0,-999,0.00,,,-99.99,,2013-08-06 08:43:00,
2013-08-06 04:52:00,52.0,-99.9,-100.00,East,86,-999.0,-999.0,-999,0.00,,,-99.99,,2013-08-06 08:52:00,
2013-08-06 05:33:00,52.0,-99.9,-100.00,East,86,-999.0,-999.0,-999,0.00,,,-99.99,,2013-08-06 09:33:00,
2013-08-06 05:43:00,52.0,-99.9,-100.00,East,86,-999.0,-999.0,-999,0.00,,,-99.99,,2013-08-06 09:43:00,
2013-08-06 05:52:00,51.0,-99.9,-100.00,East,86,-999.0,-999.0,-999,0.00,,,-99.99,,2013-08-06 09:52:00,
2013-08-06 06:32:00,51.0,-99.9,-100.00,East,86,-999.0,-999.0,-999,0.00,,,-99.99,,2013-08-06 10:32:00,
2013-08-06 06:43:00,51.0,-99.9,-100.00,East,86,-999.0,-999.0,-999,0.00,,,-99.99,,2013-08-06 10:43:00,
2013-08-06 07:52:00,56.0,-99.9,-100.00,East,86,-999.0,-999.0,-999,0.00,,,-99.99,,2013-08-06 11:52:00,
2013-08-06 08:32:00,56.0,-99.9,-100.00,East,86,-999.0,-999.0,-999,0.00,,,-99.99,,2013-08-06 12:32:00,
2013-08-06 08:43:00,56.0,-99.9,-100.00,East,86,-999.0,-999.0,-999,0.00,,,-99.99,,2013-08-06 12:43:00,
2013-08-06 08:52:00,66.0,-99.9,-100.00,East,86,-999.0,-999.0,-999,0.00,,,-99.99,,2013-08-06 12:52:00,
2013-08-06 09:32:00,66.0,-99.9,-100.00,East,86,-999.0,-999.0,-999,0.00,,,-99.99,,2013-08-06 13:32:00,
2013-08-06 09:42:00,66.0,-99.9,-100.00,East,86,-999.0,-999.0,-999,0.00,,,-99.99,,2013-08-06 13:42:00,
2013-08-06 09:52:00,71.0,-99.9,-100.00,East,86,-999.0,-999.0,-999,0.00,,,-99.99,,2013-08-06 13:52:00,
2013-08-06 10:32:00,71.0,-99.9,-100.00,East,86,-999.0,-999.0,-999,0.00,,,-99.99,,2013-08-06 14:32:00,
2013-08-06 10:42:00,71.0,-99.9,-100.00,East,86,-999.0,-999.0,-999,0.00,,,-99.99,,2013-08-06 14:42:00,
2013-08-06 10:52:00,74.0,-99.9,-100.00,East,86,-999.0,-999.0,-999,0.00,,,-99.99,,2013-08-06 14:52:00,
2013-08-06 11:33:00,74.0,-99.9,-100.00,East,86,-999.0,-999.0,-999,0.00,,,-99.99,,2013-08-06 15:33:00,
2013-08-06 11:44:00,74.0,-99.9,-100.00,East,86,-999.0,-999.0,-999,0.00,,,-99.99,,2013-08-06 15:44:00,
2013-08-06 11:52:00,76.0,-99.9,-100.00,East,86,-999.0,-999.0,-999,0.00,,,-99.99,,2013-08-06 15:52:00,
2013-08-06 12:32:00,76.0,-99.9,-100.00,East,86,-999.0,-999.0,-999,0.00,,,-99.99,,2013-08-06 16:32:00,
2013-08-06 12:43:00,76.0,-99.9,-100.00,East,86,-999.0,-999.0,-999,0.00,,,-99.99,,2013-08-06 16:43:00,
2013-08-06 12:52:00,77.0,-99.9,-100.00,ESE,104,-999.0,3.0,-999,0.00,,,-99.99,,2013-08-06 16:52:00,
2013-08-06 13:32:00,77.0,-99.9,-100.00,ESE,104,-999.0,3.0,-999,0.00,,,-99.99,,2013-08-06 17:32:00,
2013-08-06 13:44:00,77.0,-99.9,-100.00,ESE,104,-999.0,3.0,-999,0.00,,,-99.99,,2013-08-06 17:44:00,
2013-08-06 13:52:00,77.0,-99.9,-100.00,SE,136,-999.0,6.0,-999,0.00,,,-99.99,,2013-08-06 17:52:00,
2013-08-06 14:32:00,77.0,-99.9,-100.00,SE,136,-999.0,6.0,-999,0.00,,,-99.99,,2013-08-06 18:32:00,
2013-08-06 14:44:00,77.0,-99.9,-100.00,SE,136,-999.0,6.0,-999,0.00,,,-99.99,,2013-08-06 18:44:00,
2013-08-06 14:52:00,78.0,-99.9,-100.00,WSW,255,-999.0,6.0,-999,0.00,,,-99.99,,2013-08-06 18:52:00,
2013-08-06 15:32:00,78.0,-99.9,-100.00,WSW,255,-999.0,6.0,-999,0.00,,,-99.99,,2013-08-06 19:32:00,
2013-08-06 15:42:00,78.0,-99.9,-100.00,WSW,255,-999.0,6.0,-999,0.00,,,-99.99,,2013-08-06 19:42:00,
2013-08-06 15:52:00,75.0,-99.9,-100.00,SE,130,-999.0,9.0,-999,0.00,,,-99.99,,2013-08-06 19:52:00,
2013-08-06 16:32:00,75.0,-99.9,-100.00,SE,130,-999.0,9.0,-999,0.00,,,-99.99,,2013-08-06 20:32:00,
2013-08-06 16:44:00,75.0,-99.9,-100.00,SE,130,-999.0,9.0,-999,0.00,,,-99.99,,2013-08-06 20:44:00,
2013-08-06 16:52:00,73.0,-99.9,-100.00,South,176,-999.0,5.0,-999,0.00,,,-99.99,,2013-08-06 20:52:00,
2013-08-06 17:32:00,73.0,-99.9,-100.00,South,176,-999.0,5.0,-999,0.00,,,-99.99,,2013-08-06 21:32:00,
2013-08-06 17:43:00,73.0,-99.9,-100.00,South,176,-999.0,5.0,-999,0.00,,,-99.99,,2013-08-06 21:43:00,
2013-08-06 17:52:00,72.0,-99.9,-100.00,SW,235,-999.0,3.0,-999,0.00,,,-99.99,,2013-08-06 21:52:00,
2013-08-06 18:32:00,72.0,-99.9,-100.00,SW,235,-999.0,3.0,-999,0.00,,,-99.99,,2013-08-06 22:32:00,
2013-08-06 18:43:00,72.0,-99.9,-100.00,SW,235,-999.0,3.0,-999,0.00,,,-99.99,,2013-08-06 22:43:00,
2013-08-06 18:52:00,71.0,-99.9,-100.00,SSW,192,3.0,6.0,-999,0.00,,,-99.99,,2013-08-06 22:52:00,
2013-08-06 19:33:00,71.0,-99.9,-100.00,SSW,192,3.0,6.0,-999,0.00,,,-99.99,,2013-08-06 23:33:00,
2013-08-06 19:43:00,71.0,-99.9,-100.00,SSW,192,3.0,6.0,-999,0.00,,,-99.99,,2013-08-06 23:43:00,
2013-08-06 19:52:00,70.0,-99.9,-100.00,SSW,199,3.0,8.0,-999,0.00,,,-99.99,,2013-08-06 23:52:00,
2013-08-06 20:32:00,70.0,-99.9,-100.00,SSW,199,3.0,8.0,-999,0.00,,,-99.99,,2013-08-07 00:32:00,
2013-08-06 20:43:00,70.0,-99.9,-100.00,SSW,199,3.0,8.0,-999,0.00,,,-99.99,,2013-08-07 00:43:00,
2013-08-06 20:52:00,66.0,-99.9,-100.00,SW,233,-999.0,-999.0,-999,0.00,,,-99.99,,2013-08-07 00:52:00,
2013-08-06 21:32:00,66.0,-99.9,-100.00,SW,233,-999.0,-999.0,-999,0.00,,,-99.99,,2013-08-07 01:32:00,
2013-08-06 21:44:00,66.0,-99.9,-100.00,SW,233,-999.0,-999.0,-999,0.00,,,-99.99,,2013-08-07 01:44:00,
2013-08-06 21:52:00,65.0,-99.9,-100.00,SW,233,-999.0,-999.0,-999,0.00,,,-99.99,,2013-08-07 01:52:00,
2013-08-06 22:33:00,65.0,-99.9,-100.00,SW,233,-999.0,-999.0,-999,0.00,,,-99.99,,2013-08-07 02:33:00,
2013-08-06 22:43:00,65.0,-99.9,-100.00,SW,233,-999.0,-999.0,-999,0.00,,,-99.99,,2013-08-07 02:43:00,
2013-08-06 22:52:00,65.0,-99.9,-100.00,SW,233,-999.0,-999.0,-999,0.00,,,-99.99,,2013-08-07 02:52:00,
2013-08-06 23:32:00,65.0,-99.9,-100.00,SW,233,-999.0,-999.0,-999,0.00,,,-99.99,,2013-08-07 03:32:00,
2013-08-06 23:43:00,65.0,-99.9,-100.00,SW,233,-999.0,-999.0,-999,0.00,,,-99.99,,2013-08-07 03:43:00,
2013-08-06 23:52:00,64.0,-99.9,-100.00,SW,233,-999.0,-999.0,-999,0.00,,,-99.99,,2013-08-07 03:52:00,